ABY588 VCBI-OMSJ

Flight info

Callsign ABY588
Flight time N/A
Altitude 34000
Route BASUR1D BASUR P570 OLNIK/N0454F360 P570 MIXAM Z890 GERAR B540 KUPMA/N0380F240 B540 ORKOB/N0367F220 T891 NOLSU
Aircraft A320/M-SDE3FGHIRWY/LB1

Departure

Time N/A
Airport Bandaranaike International Colombo Airport (VCBI)

Arrival

Time 2026-05-06 00:57
Airport Sharjah International Airport (OMSJ)
Time Latitude Longitude Altitude Speed Heading
2026-05-06 00:36 24.85326 56.46512 20828 ft 465 kts 301°
2026-05-06 00:36 24.86988 56.43498 19962 ft 461 kts 303°
2026-05-06 00:36 24.88975 56.40765 19124 ft 456 kts 315°
2026-05-06 00:36 24.91402 56.38555 18279 ft 451 kts 326°
2026-05-06 00:37 24.94047 56.36731 17471 ft 447 kts 329°
2026-05-06 00:37 24.96668 56.34914 16688 ft 443 kts 328°
2026-05-06 00:37 24.99256 56.33086 16004 ft 438 kts 328°
2026-05-06 00:37 25.01759 56.31298 15850 ft 420 kts 328°
2026-05-06 00:38 25.04127 56.29525 15722 ft 404 kts 322°
2026-05-06 00:38 25.06198 56.27520 15595 ft 389 kts 319°
2026-05-06 00:38 25.08175 56.25570 15469 ft 375 kts 319°
2026-05-06 00:38 25.10089 56.23692 15345 ft 362 kts 319°
2026-05-06 00:39 25.11941 56.21881 15216 ft 350 kts 319°
2026-05-06 00:39 25.13738 56.20131 15090 ft 339 kts 320°
2026-05-06 00:39 25.15481 56.18436 14964 ft 329 kts 319°
2026-05-06 00:39 25.17174 56.16783 14836 ft 320 kts 319°
2026-05-06 00:40 25.18819 56.15174 14711 ft 312 kts 319°
2026-05-06 00:40 25.19886 56.14129 14634 ft 307 kts 319°
2026-05-06 00:40 25.21305 56.12413 14425 ft 302 kts 304°
2026-05-06 00:40 25.22236 56.10341 14125 ft 301 kts 293°
2026-05-06 00:41 25.23025 56.08201 13804 ft 301 kts 292°
2026-05-06 00:41 25.23812 56.06066 13507 ft 300 kts 293°
2026-05-06 00:41 25.24598 56.03938 13197 ft 299 kts 292°
2026-05-06 00:41 25.25397 56.01829 12877 ft 297 kts 295°
2026-05-06 00:42 25.26270 55.99757 12544 ft 297 kts 296°
2026-05-06 00:42 25.27183 55.97712 12220 ft 297 kts 297°
2026-05-06 00:42 25.28068 55.95659 11909 ft 295 kts 290°
2026-05-06 00:42 25.28478 55.93448 11588 ft 294 kts 272°
2026-05-06 00:43 25.28537 55.91194 11251 ft 293 kts 271°
2026-05-06 00:43 25.28579 55.88950 10934 ft 291 kts 270°
2026-05-06 00:43 25.28617 55.86719 10626 ft 290 kts 270°
2026-05-06 00:43 25.28652 55.84503 10322 ft 287 kts 270°
2026-05-06 00:44 25.28686 55.82305 10009 ft 286 kts 270°
2026-05-06 00:44 25.28720 55.80111 9689 ft 284 kts 270°
2026-05-06 00:44 25.28757 55.77938 9382 ft 282 kts 270°
2026-05-06 00:44 25.28793 55.75781 9050 ft 280 kts 270°
2026-05-06 00:45 25.29062 55.73660 8713 ft 279 kts 286°
2026-05-06 00:45 25.29918 55.71743 8357 ft 280 kts 302°
2026-05-06 00:45 25.30984 55.69946 7983 ft 279 kts 301°
2026-05-06 00:45 25.32036 55.68155 7658 ft 276 kts 301°
2026-05-06 00:46 25.33066 55.66387 7506 ft 273 kts 301°
2026-05-06 00:46 25.34079 55.64650 7406 ft 273 kts 301°
2026-05-06 00:46 25.35105 55.62892 7296 ft 272 kts 301°
2026-05-06 00:46 25.36130 55.61133 7174 ft 273 kts 301°
2026-05-06 00:47 25.37154 55.59369 7056 ft 270 kts 301°
2026-05-06 00:47 25.38146 55.57661 6944 ft 258 kts 301°
2026-05-06 00:47 25.39101 55.56019 6833 ft 251 kts 301°
2026-05-06 00:47 25.40038 55.54410 6584 ft 248 kts 301°
2026-05-06 00:48 25.40969 55.52810 6264 ft 246 kts 301°
2026-05-06 00:48 25.41905 55.51201 5926 ft 245 kts 301°
2026-05-06 00:48 25.42827 55.49619 5605 ft 245 kts 301°
2026-05-06 00:48 25.43741 55.48040 5277 ft 243 kts 301°
2026-05-06 00:49 25.44650 55.46468 4943 ft 242 kts 302°
2026-05-06 00:49 25.45558 55.44904 4617 ft 241 kts 302°
2026-05-06 00:49 25.46463 55.43345 4310 ft 240 kts 302°
2026-05-06 00:49 25.47348 55.41814 4038 ft 238 kts 302°
2026-05-06 00:50 25.48223 55.40296 3906 ft 230 kts 302°
2026-05-06 00:50 25.49066 55.38831 3786 ft 222 kts 302°
2026-05-06 00:50 25.49885 55.37409 3655 ft 216 kts 302°
2026-05-06 00:50 25.50556 55.35948 3420 ft 213 kts 279°
2026-05-06 00:51 25.50400 55.34361 3144 ft 210 kts 240°
2026-05-06 00:51 25.49447 55.33175 2828 ft 210 kts 218°
2026-05-06 00:51 25.48289 55.32143 2437 ft 217 kts 216°
2026-05-06 00:51 25.46983 55.31356 2257 ft 211 kts 192°
2026-05-06 00:52 25.45572 55.31365 2151 ft 201 kts 162°
2026-05-06 00:52 25.44399 55.32146 2071 ft 198 kts 131°
2026-05-06 00:52 25.43608 55.33389 2047 ft 197 kts 121°
2026-05-06 00:52 25.42896 55.34692 2076 ft 198 kts 121°
2026-05-06 00:53 25.42179 55.35991 2120 ft 199 kts 121°
2026-05-06 00:53 25.41445 55.37283 2181 ft 198 kts 122°
2026-05-06 00:53 25.40695 55.38567 2198 ft 199 kts 122°
2026-05-06 00:53 25.39974 55.39806 2233 ft 181 kts 122°
2026-05-06 00:54 25.39323 55.40933 2113 ft 171 kts 122°
2026-05-06 00:54 25.38694 55.42042 1871 ft 169 kts 121°
2026-05-06 00:54 25.38087 55.43099 1673 ft 158 kts 122°
2026-05-06 00:54 25.37504 55.44109 1404 ft 154 kts 121°
2026-05-06 00:55 25.36938 55.45088 1167 ft 150 kts 121°
2026-05-06 00:55 25.36379 55.46062 1002 ft 150 kts 120°
2026-05-06 00:55 25.35822 55.47039 811 ft 149 kts 121°
2026-05-06 00:55 25.35263 55.48004 633 ft 149 kts 121°
2026-05-06 00:56 25.34710 55.48963 426 ft 148 kts 121°
2026-05-06 00:56 25.34160 55.49920 241 ft 147 kts 121°
2026-05-06 00:56 25.33621 55.50857 122 ft 137 kts 121°
2026-05-06 00:56 25.33171 55.51644 119 ft 98 kts 122°
2026-05-06 00:57 25.32897 55.52120 117 ft 49 kts 122°
2026-05-06 00:57 25.32730 55.52408 116 ft 41 kts 123°
2026-05-06 00:57 25.32627 55.52589 117 ft 21 kts 126°
2026-05-06 00:57 25.32501 55.52657 119 ft 20 kts 183°
2026-05-06 00:58 25.32400 55.52595 113 ft 17 kts 212°
2026-05-06 00:58 25.32300 55.52525 114 ft 18 kts 212°
2026-05-06 00:58 25.32250 55.52437 113 ft 14 kts 293°
2026-05-06 00:58 25.32298 55.52354 115 ft 12 kts 302°
2026-05-06 00:59 25.32329 55.52278 114 ft 10 kts 261°
2026-05-06 00:59 25.32281 55.52233 114 ft 9 kts 211°
2026-05-06 00:59 25.32234 55.52201 114 ft 7 kts 212°
2026-05-06 00:59 25.32215 55.52188 114 ft 0 kts 212°